Location: Paddlesworth
(51.1000°N, 1.1333°E)
Time: 08:36:40
(UTC+00:00)

ERS-1 Rocket - Pass Details

Date: 11 May 2021
Orbit: 753 x 757 km, 98.4° (Epoch: 20 June)

Event Time Altitude Azimuth Distance (km) Brightness Sun altitude
Exits shadow 22:10:19 17° 203° (SSW) 1,837 4.6 -17.3°
Maximum altitude 22:13:43 38° 263° (W) 1,151 4.0 -17.5°
Drops below altitude 10° 22:18:24 10° 331° (NNW) 2,295 6.8 -17.8°
Sets 22:20:53 0° 340° (NNW) 3,225 8.0 -18.0°
